Regional Weather Roundup
Issued by NWS Albany, NY

Home | Current Version | Previous Version | Graphics & Text | Print | Product List | Glossary Off
Versions: 1 2 3 4 5 6 7 8 9 10 11 12 13 14 15 16 17 18 19 20 21 22 23 24 25 26 27 28

000
ASUS41 KALY 292310
RWRALY

NEW YORK STATE HOURLY WEATHER ROUNDUP
NATIONAL WEATHER SERVICE ALBANY NY
700 PM EDT MON AUG 29 2016

NOTE: "FAIR" INDICATES FEW OR NO CLOUDS BELOW 12,000 FEET WITH NO
SIGNIFICANT WEATHER AND/OR NO OBSTRUCTIONS TO VISIBILITY.

NYZ032-033-038>043-046>054-057>066-NYZ062>081-082-084-300000-
EAST


CITY           SKY/WX    TMP DP  RH WIND       PRES   REMARKS
ALBANY         PTCLDY    79  56  45 NE8       30.12R
GLENS FALLS    CLEAR     75  56  51 NE9       30.14R
POUGHKEEPSIE   CLEAR     80  54  40 N9        30.10R
NEWBURGH       PTCLDY    81  61  50 N9        30.12S
MONTGOMERY     PTCLDY    82  60  47 NW6       30.12R
WHITE PLAINS   CLEAR     82  55  39 N9        30.09R
ISLIP          PTCLDY    85  57  38 N8        30.07R
NEW YORK CITY  PTCLDY    87  59  38 NW12      30.07R
CENTRAL PARK   CLEAR     86  57  37 VRB6      30.11R
$$

NYZ005>009-017-018-044>046-055-056-300000-
CENTRAL


CITY           SKY/WX    TMP DP  RH WIND       PRES   REMARKS
FULTON         CLEAR     73  59  61 NW3       30.19F
SYRACUSE       PTCLDY    73  56  54 N8        30.18S
ROME           CLEAR     74  59  59 N5        30.17S
ELMIRA         CLEAR     75  60  59 N8        30.17S
BINGHAMTON       N/A     71  57  61 N9        30.21S
MONTICELLO     CLEAR     73  57  56 N7        30.19S
$$

NYZ026>034-041>043-087-300000-
NORTH


CITY           SKY/WX    TMP DP  RH WIND       PRES   REMARKS
WATERTOWN      CLEAR     76  52  43 N7        30.18S
FORT DRUM      NOT AVBL
MASSENA        CLOUDY    72  57  59 NW3       30.19S
SARANAC LAKE   CLEAR     68  52  56 CALM      30.21F
PLATTSBURGH    CLEAR     73  55  53 NW3       30.16S
$$

NYZ001>004-010>016-019>021-085-300000-
WEST


CITY           SKY/WX    TMP DP  RH WIND       PRES   REMARKS
NIAGARA FALLS  PTCLDY    78  54  43 NE3       30.20S
BUFFALO        PTCLDY    77  54  44 N8        30.20S
DUNKIRK        CLEAR     76  61  59 NW5       30.20F
JAMESTOWN      CLEAR     72  55  56 N9        30.24S
WELLSVILLE     CLEAR     73  56  54 CALM      30.26S
ROCHESTER      PTCLDY    76  56  49 N6        30.21R
PENN YAN       CLEAR     75  58  55 N6        30.21S
$$

             KEY
       WCI = WIND CHILL INDEX
       VSB = VISIBILITY
       HX  = HEAT INDEX
$$




USA.gov is the U.S. government's official web portal to all federal, state and local government web resources and services.